TimeCET,TemperatureF,Dew PointF,Humidity,Sea Level PressureIn,VisibilityMPH,Wind Direction,Wind SpeedMPH,Gust SpeedMPH,PrecipitationIn,Events,Conditions,WindDirDegrees,DateUTC
7:50 AM,53.6,48.2,82,29.09,6.2,SSW,20.7,-,N/A,,Mostly Cloudy,200,2013-11-04 06:50:00
8:20 AM,55.4,48.2,77,29.09,6.2,South,18.4,-,N/A,,Mostly Cloudy,190,2013-11-04 07:20:00
8:50 AM,55.4,50.0,82,29.09,3.1,SSW,21.9,-,N/A,Rain,Rain Showers,200,2013-11-04 07:50:00
9:20 AM,55.4,50.0,82,29.09,6.2,SSW,13.8,-,N/A,,Mostly Cloudy,210,2013-11-04 08:20:00
9:50 AM,55.4,50.0,82,29.09,6.2,SSW,16.1,27.6,N/A,,Mostly Cloudy,210,2013-11-04 08:50:00
10:20 AM,55.4,50.0,82,29.09,6.2,SSW,17.3,-,N/A,,Mostly Cloudy,210,2013-11-04 09:20:00
10:50 AM,55.4,50.0,82,29.06,6.2,SSW,16.1,-,N/A,,Scattered Clouds,200,2013-11-04 09:50:00
11:20 AM,57.2,50.0,77,29.06,6.2,SSW,13.8,-,N/A,,Scattered Clouds,210,2013-11-04 10:20:00
11:50 AM,59.0,50.0,72,29.06,6.2,SSW,16.1,28.8,N/A,,Scattered Clouds,210,2013-11-04 10:50:00
12:20 PM,57.2,50.0,77,29.03,6.2,SW,13.8,26.5,N/A,,Mostly Cloudy,220,2013-11-04 11:20:00
12:50 PM,57.2,50.0,77,29.03,4.3,SW,15.0,26.5,N/A,Rain,Rain Showers,220,2013-11-04 11:50:00
1:20 PM,55.4,51.8,88,29.03,6.2,WSW,13.8,25.3,N/A,,Mostly Cloudy,240,2013-11-04 12:20:00
1:50 PM,55.4,51.8,88,29.03,6.2,SW,12.7,-,N/A,,Mostly Cloudy,230,2013-11-04 12:50:00
2:20 PM,55.4,50.0,82,29.03,3.7,SW,20.7,-,N/A,Rain,Light Rain Showers,230,2013-11-04 13:20:00
2:50 PM,48.2,46.4,93,29.06,3.1,NW,18.4,-,N/A,Rain,Rain Showers,320,2013-11-04 13:50:00
3:20 PM,48.2,46.4,93,29.09,3.7,NW,16.1,-,N/A,Rain,Rain Showers,320,2013-11-04 14:20:00
3:50 PM,46.4,44.6,93,29.12,5.0,NW,15.0,-,N/A,Rain,Light Rain,320,2013-11-04 14:50:00
4:20 PM,46.4,44.6,93,29.18,6.2,NW,16.1,-,N/A,Rain,Light Rain,320,2013-11-04 15:20:00
4:50 PM,46.4,44.6,93,29.21,6.2,NW,12.7,-,N/A,Rain,Light Rain,310,2013-11-04 15:50:00
5:20 PM,46.4,44.6,93,29.24,6.2,WNW,8.1,-,N/A,,Mostly Cloudy,290,2013-11-04 16:20:00
5:50 PM,46.4,44.6,93,29.27,6.2,WNW,9.2,-,N/A,,Mostly Cloudy,290,2013-11-04 16:50:00
6:20 PM,46.4,42.8,87,29.30,6.2,West,6.9,-,N/A,,Mostly Cloudy,280,2013-11-04 17:20:00
6:50 PM,44.6,42.8,93,29.33,6.2,WSW,5.8,-,N/A,,Partly Cloudy,250,2013-11-04 17:50:00
7:20 PM,44.6,42.8,93,29.33,6.2,WSW,5.8,-,N/A,,Partly Cloudy,240,2013-11-04 18:20:00
7:50 PM,42.8,42.8,100,29.36,6.2,WSW,5.8,-,N/A,,Partly Cloudy,250,2013-11-04 18:50:00